This is the latest recevied weather packets stored in our database for station/object CA3SQH-10. If no packets are shown the sender has not sent any weather packets the latest 10 day(s).
| Time | Temp. | Humidity | Pressure | Rain* | Wind** | Luminosity | Snow |
|---|---|---|---|---|---|---|---|
| 1777412174 | 21.67° C | 41% | 939.2 hPa | - | - | - | - |
| 1777411273 | 21.67° C | 39% | 939 hPa | - | - | - | - |
| 1777410373 | 22.22° C | 37% | 938.9 hPa | - | - | - | - |
| 1777409473 | 22.78° C | 35% | 938.9 hPa | - | - | - | - |
| 1777408573 | 23.33° C | 35% | 939 hPa | - | - | - | - |
| 1777407672 | 23.33° C | 34% | 939.1 hPa | - | - | - | - |
| 1777406772 | 23.89° C | 34% | 939.2 hPa | - | - | - | - |
| 1777405872 | 24.44° C | 33% | 939.1 hPa | - | - | - | - |
| 1777404978 | 24.44° C | 33% | 939.1 hPa | - | - | - | - |
| 1777404072 | 24.44° C | 33% | 939 hPa | - | - | - | - |
| 1777403171 | 24.44° C | 31% | 938.9 hPa | - | - | - | - |
| 1777402271 | 25° C | 30% | 938.9 hPa | - | - | - | - |
| 1777401371 | 25° C | 30% | 938.9 hPa | - | - | - | - |
| 1777400471 | 25° C | 31% | 939 hPa | - | - | - | - |
| 1777399571 | 24.44° C | 31% | 939.2 hPa | - | - | - | - |
| 1777398670 | 24.44° C | 31% | 939.3 hPa | - | - | - | - |
| 1777397772 | 24.44° C | 30% | 939.4 hPa | - | - | - | - |
| 1777396872 | 24.44° C | 31% | 939.7 hPa | - | - | - | - |
| 1777395971 | 23.89° C | 30% | 940 hPa | - | - | - | - |
| 1777395071 | 23.89° C | 29% | 940.2 hPa | - | - | - | - |
| 1777394171 | 23.89° C | 29% | 940.3 hPa | - | - | - | - |
| 1777393271 | 23.33° C | 30% | 940.4 hPa | - | - | - | - |
| 1777392371 | 22.78° C | 31% | 940.4 hPa | - | - | - | - |
| 1777391470 | 22.22° C | 32% | 940.5 hPa | - | - | - | - |
| 1777390570 | 21.67° C | 33% | 940.5 hPa | - | - | - | - |
* Rain since midnight (hover to see other rain measurements)
** Current wind speed in m/s (hover to see current wind gust speed)